Regional Weather Roundup
Issued by NWS

Home | Current Version | Previous Version | Text Only | Print | Product List | Glossary On
Versions: 1 2 3 4 5 6 7 8 9 10 11 12 13 14 15 16 17 18 19 20 21 22 23 24 25 26 27 28 29 30 31 32 33 34 35 36 37 38 39 40 41 42 43 44 45 46 47 48 49 50
000
ASUS43 KDTX 221510
RWRMI
MICHIGAN HOURLY REGIONAL WEATHER ROUNDUP
NATIONAL WEATHER SERVICE DETROIT/PONTIAC MI
ISSUED BY NATIONAL WEATHER SERVICE GRAND RAPIDS MI
1100 AM EDT THU JUN 22 2017

NOTE: "FAIR" INDICATES FEW OR NO CLOUDS BELOW 12,000 FEET WITH NO
SIGNIFICANT WEATHER AND/OR OBSTRUCTION TO VISIBILITY.

MIZ047>049-052>055-059>063-066>070-074>076-081>083-221600-
SOUTHEAST LOWER MICHIGAN

CITY           SKY/WX    TMP DP  RH WIND       PRES   REMARKS
ADRIAN           N/A     74  66  76 W7        29.94S
ALMA           CLOUDY    70  65  82 SW9       29.83F
ANN ARBOR      CLOUDY    68  63  84 S5        29.92S
BAD AXE        CLOUDY    61  59  92 CALM      29.87F
DETROIT CITY   CLOUDY    77  66  68 W6        29.90F
DETROIT        CLOUDY    71  64  78 SW9       29.92S
FLINT          PTSUNNY   77  63  61 SW10G22   29.87F
GROSSE ILE     CLOUDY    72  66  82 SW5       29.92R
HILLSDALE      CLOUDY    73  64  73 SW7       29.94S
HOWELL         CLOUDY    77  62  59 SW9G16    29.89F

CITY           SKY/WX    TMP DP  RH WIND       PRES   REMARKS
JACKSON        CLOUDY    77  67  71 W16G24    29.91F
LANSING        MOSUNNY   83  64  52 SW15      29.88F
MASON          CLOUDY    78  66  66 SW10G18   29.89F
MONROE         CLOUDY    76  68  76 W9        29.92R
MT. CLEMENS    MOSUNNY   81  66  61 SW9       29.88F
PONTIAC        CLOUDY    76  64  66 SW9       29.89F
PORT HOPE        N/A     60  57  89 S8        29.83F
PORT HURON     CLOUDY    72  61  68 S5        29.90F
TRI CITIES     CLOUDY    65  61  87 E6        29.84F
YPSILANTI      PTSUNNY   71  65  81 SW9       29.93S
$$
MIZ043>046-050>051-056>058-064>065-071>073-077>080-221600-
SOUTHWEST LOWER MICHIGAN

CITY           SKY/WX    TMP DP  RH WIND       PRES   REMARKS
BATTLE CREEK   CLOUDY    79  68  69 SW16      29.90F
BENTON HARBOR  CLOUDY    82  65  56 SW13G20   29.87F
BIG RAPIDS     CLOUDY    68  64  88 SE3       29.80F
COLDWATER      CLOUDY    74  68  80 SW8       29.93F
HOLLAND        CLOUDY    82  67  60 SW16G28   29.85F
GRAND RAPIDS   CLOUDY    82  68  62 SW17G23   29.84F
KALAMAZOO      CLOUDY    79  67  66 SW12      29.90F
MARSHALL       CLOUDY    76  69  80 SW7       29.91F
MOUNT PLEASANT PTSUNNY   65  62  90 E5        29.81F
MUSKEGON       CLOUDY    76  66  71 S15       29.82F
STURGIS        CLOUDY    73  69  85 SW5       29.93F
$$
MIZ016>042-221600-
NORTHERN LOWER MICHIGAN

CITY           SKY/WX    TMP DP  RH WIND       PRES   REMARKS
ALPENA         CLOUDY    63  63 100 S8        29.79F
BEAVER ISLAND  CLOUDY    66  63  88 S9        29.71F
BELLAIRE       CLOUDY    69  65  86 S5        29.74F
CADILLAC       CLOUDY    71  67  88 SW12      29.78F
CHARLEVOIX     CLOUDY    67  66  96 S8        29.75F
GAYLORD        CLOUDY    64  61  90 SW9       29.77F
HOUGHTON LAKE  CLOUDY    67  64  90 SW6       29.81F
MANISTEE       CLOUDY    74  68  81 SW9       29.75F
OSCODA         CLOUDY    62  61  95 S10       29.84S
PELLSTON       CLOUDY    63  60  90 S5        29.74F
TRAVERSE CITY  CLOUDY    75  66  73 SW9       29.72F
LUDINGTON      CLOUDY    71  67  87 SW14G20   29.75F
$$
MIZ007>008-015-221600-
EASTERN UPPER MICHIGAN

CITY           SKY/WX    TMP DP  RH WIND       PRES   REMARKS
KINROSS        CLOUDY    61  58  90 SE9       29.74F
MACKINAC ISLAN CLOUDY    60  60 100 S7        29.73F
NEWBERRY       CLOUDY    62  61  97 S10       29.71F
S. S. MARIE    CLOUDY    64  58  80 SE8       29.73F
$$
MIZ004>006-011>014-085-221600-
CENTRAL UPPER MICHIGAN

CITY           SKY/WX    TMP DP  RH WIND       PRES   REMARKS
MANISTIQUE     CLOUDY    61  58  89 S6        29.71F
ESCANABA       CLOUDY    69  63  81 VRB5      29.69F
MENOMINEE      CLOUDY    73  67  81 VRB6      29.71
SAWYER-GWINN   SUNNY     64  57  77 SW8       29.69F
$$
MIZ001>003-009>011-084-221600-
WESTERN UPPER MICHIGAN

CITY           SKY/WX    TMP DP  RH WIND       PRES   REMARKS
IRON MOUNTAIN  CLOUDY    71  62  73 W7        29.69S
HOUGHTON       PTSUNNY   65  56  72 W23G31    29.64F
COPPER HARBOR    N/A     58  53  84 N14       29.62F
IRONWOOD       CLOUDY    66  59  78 W7        29.71F
$$

ABBREVIATIONS USED IN REMARKS
   TC - TEMPERATURE IN CELSIUS
  WCI - WIND CHILL INDEX
   HX - HEAT INDEX
  VSB - VISIBILITY




USA.gov is the U.S. government's official web portal to all federal, state and local government web resources and services.